Showing default

ORBCOMM FM 8, 25112

Orbit data source: Space-Track

ORBCOMM FM 8, 25112 is a payload satellite owned by Orbcomm (US) in LEO that was launched on Tue, 23 Dec 1997 UTC via a PEGASUS XL/HAPS launch vehicle from the Pegasus Launch, Eastern Range Air Space (ERAS). Payload-class satellites include a variety of spacecraft equipped with specific instruments for various scientific and technological missions. These include communications satellites like Starlink; space stations such as the ISS; scientific satellites like the Hubble; Earth observation satellites from companies like Planet Labs, Umbra, and HawkEye 360; GPS; miniature CubeSats for education and research; and military/defense satellites.

Loading next visibility...
Identifier
25112, 1997-084A
Orbit
LEO
Country
Flag of USUS / ORB
Related business
Manufacturer
OSC-Germantown
Mission
Non-operational Commercial Communications
Bus & Motor
MICROSTAR, Unknown motor
Mass
42 kg wet, 42 kg dry
Launch date (UTC)
1997-12-23 (28 years ago)
Launch vehicle
PEGASUS XL/HAPS
Launch site
Pegasus Launch, Eastern Range Air Space (ERAS)
Object type
Payload
Rocket body
Debris
Shape & HBR
Cyl + 2 Pan, 4.2 m
Radar Cross Section
1.484 m², Medium (>0.1 m² and < 1m²)

Expand to show TLE details & history
Last TLE update: 2 days ago

TLE from 2 days ago
0 ORBCOMM FM 8
1 25112U 97084A   26171.34852491  .00000792  00000-0  25380-3 0  9991
2 25112  45.0147  38.3601 0006174 329.1365  30.9123 14.47265962494687
Epoch: 2026-06-20T08:21Z
TLE epoch observation values (Epoch: 2026-06-20T08:21:52.552Z)
Latitude
-0.00004°
Longitude
4.32666°
Altitude
730.826 km
Speed
7.493 km/s
True Right ascension
02h 33m 26s
True Declination
0° 00' 00"
Sunlit
Object was in daylight at epoch
Visualization orbit readout
Latitude
Unknown
Longitude
Unknown
Altitude
Unknown
Speed
Unknown
Apparent Right ascension
Unknown
Apparent Declination
Unknown
Sunlit
N/A
Visualization observer readout
Local Sidereal Time
23:08:29
Azimuth
Unknown
Elevation
Unknown
Doppler factor
Unknown
Orbital elements
Apogee altitude
740.535 km
Perigee altitude
731.75 km
Semi-major axis
7,114.279 km
Eccentricity
0.00062
Inclination
45.0147°
RAAN
38.3601°
Arg. of periapsis
329.1365°
True anomaly
30.94867°
Mean anomaly
30.9123°
Eccentric anomaly
30.93048°
Mean motion
3.61699 °/min
Orbital period
99.53 mins
BSTAR
0.0002538
Loading maneuver chart data...
Computing Atmospheric mass density...

Documentation

Showing up to 5 results
|